Location: Unspecified
(0.0000°N, 0.0000°E)
Time: 03:48:57
(UTC+00:00)

Envisat - Pass Details

Date: 10 June 2023
Orbit: 763 x 764 km, 98.2° (Epoch: 02 October)

Event Time Altitude Azimuth Distance (km) Brightness Sun altitude
Rises 03:16:02 0° 16° (NNE) 3,212 6.8 -37.0°
Reaches altitude 10° 03:18:20 10° 19° (NNE) 2,289 5.9 -36.5°
Enters shadow 03:20:16 24° 23° (NNE) 1,549 4.9 -36.1°
